User: anonymous   Login
Location: Unspecified
(0.0000°N, 0.0000°E)
Time: 00:37:06
(UTC+00:00)
Language:

STSS DEMO 1 (USA 208) - Orbit

View from above orbital plane
View from above orbital plane
View from above satellite
View from above satellite

Ground track
Ground track

The orbit data is extracted from the following two-line orbital elements,

1 35937U 09052A   17049.83622434 0.00000000  00000-0  00000-0 0    09
2 35937  57.9887 343.7813 0021464 168.1170 191.8829 12.79322413    05
Epoch (UTC): 18 February 2017 20:04:09
Eccentricity: 0.0021464
inclination: 57.9887°
perigee height: 1327 km
apogee height: 1361 km
right ascension of ascending node: 343.7813°
argument of perigee: 168.1170°
revolutions per day: 12.79322413
mean anomaly at epoch: 191.8829°
orbit number at epoch: 0

The dashed part of the orbit path shows where the satellite is in the earth's shadow,  

DLR